This demonstration page uses our WeatherBlox Daily Observations layout. Learn more.

Left ArrowRight Arrow

53.62937, 11.41316

Hourly Observations for July 9, 2016

Temp ( °F °C ) Dew Point ( °F °C ) Humidity (%) Winds ( mph kmh ) Pressure ( in mb ) Visibility ( mi km ) Precip ( " mm )
5:20 am 05:20 Mostly Cloudy 57 14 55 13 94 94 WSW 12 19 29.91 1013 30 48 N/A
5:50 am 05:50 Mostly Cloudy 57 14 55 13 94 94 WSW 10 17 29.91 1013 30 48 N/A
6:20 am 06:20 Mostly Cloudy 57 14 55 13 94 94 WSW 13 20 29.94 1014 30 48 N/A
6:50 am 06:50 Mostly Cloudy 59 15 55 13 88 88 W 14 22 29.94 1014 30 48 N/A
7:20 am 07:20 Mostly Cloudy with Drizzle 59 15 55 13 88 88 WSW 13 20 29.94 1014 4 6 N/A
7:50 am 07:50 Mostly Cloudy with Drizzle 57 14 55 13 94 94 WSW 14 22 29.94 1014 4 6 N/A
8:20 am 08:20 Mostly Cloudy with Light Rain 57 14 57 14 100 100 W 13 20 29.94 1014 2 4 N/A
8:50 am 08:50 Mostly Cloudy 59 15 57 14 94 94 W 10 17 29.97 1015 30 48 N/A
9:20 am 09:20 Mostly Cloudy 61 16 57 14 88 88 W 12 19 29.97 1015 30 48 N/A
9:50 am 09:50 Mostly Cloudy 61 16 55 13 83 83 W 14 22 29.97 1015 30 48 N/A
10:20 am 10:20 Mostly Cloudy 61 16 55 13 83 83 W 12 19 29.97 1015 30 48 N/A
10:50 am 10:50 Mostly Cloudy 61 16 55 13 83 83 W 14 22 29.97 1015 30 48 N/A
11:20 am 11:20 Mostly Cloudy 63 17 55 13 77 77 W 14 22 30.00 1016 30 48 N/A
11:50 am 11:50 Mostly Cloudy 64 18 55 13 73 73 W 15 24 30.00 1016 30 48 N/A
12:20 pm 12:20 Mostly Cloudy 64 18 55 13 73 73 W 13 20 30.00 1016 30 48 N/A
12:50 pm 12:50 Mostly Cloudy 66 19 55 13 68 68 W 13 20 30.00 1016 30 48 N/A
1:20 pm 13:20 Mostly Sunny 68 20 55 13 64 64 W 10 17 30.00 1016 7 11 N/A
1:50 pm 13:50 Mostly Cloudy 70 21 55 13 60 60 W 15 24 30.00 1016 30 48 N/A
2:20 pm 14:20 Mostly Cloudy 70 21 55 13 60 60 W 13 20 30.00 1016 30 48 N/A
2:50 pm 14:50 Mostly Cloudy 72 22 54 12 53 53 W 15 24 30.00 1016 30 48 N/A
3:20 pm 15:20 Partly Cloudy 70 21 52 11 53 53 WNW 13 20 30.00 1016 30 48 N/A
3:50 pm 15:50 Partly Cloudy 72 22 54 12 53 53 WNW 12 19 30.00 1016 30 48 N/A
4:20 pm 16:20 Mostly Sunny 73 23 52 11 47 47 W 13 20 30.00 1016 7 11 N/A
4:50 pm 16:50 Mostly Sunny 72 22 54 12 53 53 W 12 19 30.00 1016 7 11 N/A
5:20 pm 17:20 Partly Cloudy 72 22 54 12 53 53 W 10 17 30.00 1016 30 48 N/A
5:50 pm 17:50 Mostly Sunny 70 21 54 12 57 57 WNW 8 13 30.00 1016 7 11 N/A
6:20 pm 18:20 Mostly Sunny 70 21 54 12 57 57 W 8 13 30.00 1016 7 11 N/A
6:50 pm 18:50 Mostly Sunny 70 21 54 12 57 57 W 7 11 30.00 1016 7 11 N/A

Powered by AerisWeather